Preview of NWS' New Version of Forecast
This preview is not operational and should not be used for support decisions.

Regional Weather Roundup (RWR)

Issued by National Weather Service (NWS)

                            
000
ASCA42 TJSJ 221510
RWRPR 
PUERTO RICO/U.S. VIRGIN ISLANDS HOURLY WEATHER ROUNDUP
NATIONAL WEATHER SERVICE SAN JUAN PR
1100 AM AST WED MAY 22 2019

PRZ001>002-007>008-010-221600-
PUERTO RICO
  
CITY           SKY/WX    TMP DP  RH WIND       PRES   REMARKS
SAN JUAN LMM   PTSUNNY   88  72  58 E10G17    29.99F HX  94           
AGUADILLA      MOSUNNY   84  70  61 CALM      30.02S                  
CEIBA          SUNNY     88  73  62 E13       30.02S HX  96           
$$

VIZ001>002-221600-
U.S. VIRGIN ISLANDS
  
CITY           SKY/WX    TMP DP  RH WIND       PRES   REMARKS
CHARLOTTE AMA  MOSUNNY   84  73  70 SE16      30.00S HX  91           
CHRISTIANSTED  MOSUNNY   84  73  70 SE15      30.01S HX  91           
$$

HOURLY WEATHER ROUNDUP FOR THE NEWS MEDIA
  
CITY           SKY/WX    TMP DP  RH WIND       PRES   REMARKS
ORLANDO        FAIR      84  64  50 CALM      30.10R                  
NEW YORK       FAIR      68  40  35 N12       30.24S                  
NEWARK         PTSUNNY   68  36  30 NW6       30.24R                  
CHICAGO        PTSUNNY   64  57  78 S16G23    29.84R                  
HARTFORD       FAIR      63  37  38 N20       30.16S                  
BOSTON         PTSUNNY   64  33  31 N8G20     30.17S                  
DALLAS         CLOUDY    79  72  79 SE13      29.77R HAZE             
PHILADELPHIA   FAIR      69  36  29 CALM      30.27F                  
LOS ANGELES    MOSUNNY   60  45  57 W5        29.73R                  
WASHINGTON DC  PTSUNNY   64  42  44 E6        30.29S